Regional Weather Roundup
Issued by NWS Wilmington, NC

Home | Current Version | Previous Version | Text Only | Print | Product List | Glossary On
Versions: 1 2 3 4 5 6 7 8 9 10 11 12 13 14 15 16 17 18 19 20 21 22 23 24 25 26 27 28 29 30 31 32 33 34 35 36 37 38 39 40 41 42 43 44 45 46 47 48 49 50
625
ASUS42 KILM 301613
RWRILM
RWRILM
REGIONAL HOURLY WEATHER ROUNDUP
NATIONAL WEATHER SERVICE WILMINGTON NC
1200 PM EDT FRI SEP 30 2016

NOTE: "FAIR" INDICATES FEW OR NO CLOUDS BELOW 12,000 FEET WITH NO
SIGNIFICANT WEATHER AND/OR OBSTRUCTIONS TO VISIBILITY.

...............WFO WILMINGTON COUNTY WARNING AREA...............

......COASTAL NC AND SC COUNTIES......

CITY           SKY/WX    TMP DP  RH WIND       PRES   REMARKS
WILMINGTON     LGT RAIN  73  70  90 E6        30.03F
N MYRTLE BEACH MOSUNNY   83  73  72 S9        30.01R
MYRTLE BEACH   MOSUNNY   84  66  54 SW12      30.03R

......INLAND NC AND SC COUNTIES.......

CITY           SKY/WX    TMP DP  RH WIND       PRES   REMARKS
LUMBERTON      CLOUDY    79  73  82 SE7       30.01R
ELIZABETHTOWN  HVY RAIN  72  72 100 SE5G22    30.03R VSB 1/2
WHITEVILLE     NOT AVBL
FLORENCE       PTSUNNY   81  71  71 VRB6      30.01S
DARLINGTON     MOSUNNY   81  69  67 VRB3      30.01S
KINGSTREE      FAIR      82  68  61 SW3       30.01S
HARTSVILLE     FAIR      79  61  53 SW5       30.01R
BENNETTSVILLE  PTSUNNY   82  72  69 SE5       30.00S
CONWAY         FAIR      81  73  78 S3        30.01S
GEORGETOWN     FAIR      84  70  61 S3        30.01S
MARION         FAIR      81  72  74 SW3       30.01S

....................REST OF NORTH CAROLINA......................

.........EASTERN NC.........

CITY           SKY/WX    TMP DP  RH WIND       PRES   REMARKS
CAPE HATTERAS  MOSUNNY   83  74  74 E6        30.08F
JACKSONVILLE   LGT RAIN  72  70  93 S5        30.05R
MOREHEAD CITY  HVY RAIN  78  75  90 SE7       30.06S FOG
KENANSVILLE    CLOUDY    73  72  94 SE3       30.03F
NEW BERN       MOSUNNY   86  74  67 SE12      30.05S HX  94
ELIZABETH CITY MOSUNNY   80  72  76 E13       30.07S

.........CENTRAL NC.........

CITY           SKY/WX    TMP DP  RH WIND       PRES   REMARKS
RALEIGH DURHAM PTSUNNY   77  70  79 S8        30.03S
ROCKY MOUNT    CLOUDY    76  75  97 CALM      30.05S
ROANOKE RAPIDS NOT AVBL
FAYETTEVILLE   CLOUDY    79  71  76 SE12      30.01F
HOFFMAN        PTSUNNY   78  71  80 S5        30.01R

.........WESTERN NC.........

CITY           SKY/WX    TMP DP  RH WIND       PRES   REMARKS
CHARLOTTE      MOSUNNY   76  58  53 S6        30.02S
GREENSBORO     MOSUNNY   80  70  71 S13       30.00F
HICKORY        NOT AVBL
BOONE          NOT AVBL
ASHEVILLE      NOT AVBL

.....................REST OF SOUTH CAROLINA.....................

.........EASTERN SC.........

CITY           SKY/WX    TMP DP  RH WIND       PRES   REMARKS
CHARLESTON     MOSUNNY   84  67  56 W7        30.01S
BEAUFORT MCAS  MOSUNNY   82  58  43 VRB3      30.03R
HILTON HEAD    SUNNY     86  66  51 W6        30.03S

.........CENTRAL SC.........

CITY           SKY/WX    TMP DP  RH WIND       PRES   REMARKS
COLUMBIA       SUNNY     80  49  33 W5        30.01S
ORANGEBURG     SUNNY     79  55  43 SW8       30.02S
SUMTER SHAW    SUNNY     81  53  37 W7        29.99S

.........WESTERN SC.........

CITY           SKY/WX    TMP DP  RH WIND       PRES   REMARKS
GREENVILLE     NOT AVBL
ROCK HILL      SUNNY     75  55  49 CALM      30.02S
ANDERSON       SUNNY     70  48  45 SW7       30.03R
CLEMSON        NOT AVBL
GREENWOOD      SUNNY     74  47  38 SW8       30.03F


...................COASTAL AND OFFSHORE REPORTS..................

................LOCAL PIERS AND NC RESERVE................


STATION/POSITION TIME  SKY/WX   TEMP    WIND        PRES    VSBY
                                AIR SEA DIR/SP/G
                 (UTC)          (F)     (DEG/KT/KT) (MB)    (MI)
JOHNY MRCER PIER 1548            74 82  220/  2/  3 1015.9F
NC RESRV MASNBRO 1445            73     260/  2     1016.0
OCEAN CREST PIER NOT AVBL
SPRINGMAID  PIER 1548            80 81  170/  7/  8 1016.0R


................COASTAL AND OFFSHORE BUOYS................


STATION/POSITION TIME  SKY/WX   TEMP    WIND        PRES    VSBY
                                AIR SEA DIR/SP/G
                 (UTC)          (F)     (DEG/KT/KT) (MB)    (MI)
DIMNDSHOAL 41025 1550            81 78  160/  8/ 10 1018.6R
WVE H/P(F/S)=  5/10 SWL H/P/D(F/S/D)=  5/ 30/10

CAPE LOOKOUT     1600            72     150/ 20/ 23 1017.7R
ONSLOW BAY 41036 NOT AVBL
ONSLOW BAY 41064 1508            83 82  180/ 10/ 16 1017.1S
ONSLOW BAY 41159 1555               82                N/A
WVE H/P(F/S)=  4/10 SWL H/P/D(F/S/D)=  2/100/11

5SE WRITBC 41038 1508            74 80  300/ 10/ 16 1018.0F
MASNBO INL 41110 1559               80                N/A
WVE H/P(F/S)=  3/ 5

WILM HARBR 41108 1556               81                N/A
WVE H/P(F/S)=  4/ 5

27SE WRITB 41037 1508            83 81  180/ 10/ 14 1017.1R
FRYING PAN 41013 1550            81 82  170/ 16/ 17 1016.1F
WVE H/P(F/S)=  4/ 5 SWL H/P/D(F/S/D)=  2/120/ 9

SUNST NRSH 41024 1508            80 81  150/ 10/ 14 1014.8R
CAPRS NRSH 41029 1508            80 81  250/  4/  8 1015.9R
EDISTO     41004 1550            82 82  220/  8/ 10 1016.0R
WVE H/P(F/S)=  3/ 5 SWL H/P/D(F/S/D)=  3/190/ 5



..........OFFSHORE BUOYS BEYOND 100 NM OFFSHORE...........
.....IN A TRIANGLE---HAT TO BERMUDA TO BAHAMAS TO HAT.....


STATION/POSITION TIME  SKY/WX   TEMP    WIND        PRES    VSBY
                                AIR SEA DIR/SP/G
                 (UTC)          (F)     (DEG/KT/KT) (MB)    (MI)
150E HAT   41001 NOT AVBL
W BERMUDA  41048 1550            83 83  150/  8/ 10 1021.8F
WVE H/P(F/S)=  4/ 8 SWL H/P/D(F/S/D)=  3/ 60/ 8

ATLANTIC S 41049 1550            78 84   70/  8/ 12 1020.5S
WVE H/P(F/S)=  5/ 9 SWL H/P/D(F/S/D)=  5/130/ 9

E BAHAMAS  41046 1550            81 86   90/ 21/ 33 1017.5R
WVE H/P(F/S)=  7/ 9 SWL H/P/D(F/S/D)=  5/110/ 9

NE BAHAMAS 41047 1550            85 85   50/  2/  4 1020.3S
WVE H/P(F/S)=  5/ 7 SWL H/P/D(F/S/D)=  5/140/ 7

120E CANVRL41010 NOT AVBL

END




USA.gov is the U.S. government's official web portal to all federal, state and local government web resources and services.